Retour au catalogue

UPPER ADAPTER

ActifSSO
NORAD 44887·DEBRIS·🇨🇳 China
Ce nom de satellite n'a pas encore été confirmé par des sources officielles.

Lancé Dec 20, 2019 depuis Taiyuan Satellite Launch Center

Loading…

Prochains Passages (prochaines 24 heures)

TLE

FraisSource: Space-Track

Époque: Sep 14, 2026, 13:16 UTC

1 44887U 19093J   26257.55328832  .00000597  00000-0  63704-4 0  9996
2 44887  97.7888 341.0090 0013536 132.3482 227.8886 14.92473672365312

Suivez UPPER ADAPTER en temps réel avec AllMySat

Download on the App Store